Weather History for Las Cruces, NM

Change the Weather History Date:

Saturday, May 11, 2013

  Actual Average Record
Temperature  
Mean Temperature 60 °F -  
Max Temperature 74 °F 83 °F 91 °F (2001)
Min Temperature 45 °F 54 °F 41 °F (2011)
Degree Days  
Heating Degree Days 6    
Growing Degree Days 10 (Base 50)    
Moisture  
Dew Point 38 °F    
Average Humidity 49    
Maximum Humidity 86    
Minimum Humidity 19    
Precipitation  
Precipitation 0.00 in - - ()
Sea Level Pressure  
Sea Level Pressure 30.27 in    
Wind  
Wind Speed 6 mph (NE)    
Max Wind Speed 17 mph    
Max Gust Speed 25 mph    
Visibility 10 miles    
Events Rain    
Averages and records for this station are not official NWS values.
T = Trace of Precipitation, MM = Missing Value Source: NWS Daily Summary

Daily Weather History Graph

Daily Weather History Graph

Search for Another Location

Airport:

Trip Planner

Search our weather history database for the weather conditions in past years. The results will help you decide how hot, cold, wet, or windy it might be!

Date:

Astronomy

May. 11, 2013 Rise Set
Actual Time 6:12 AM MDT 7:56 PM MDT
Civil Twilight 5:45 AM MDT 8:22 PM MDT
Nautical Twilight 5:13 AM MDT 8:55 PM MDT
Astronomical Twilight 4:39 AM MDT 9:29 PM MDT
Moon 7:24 AM MDT (5/11) 9:36 PM MDT (5/11)
Length of Visible Light 14h 37m
Length of Day
13h 43m
Waxing Crescent, 3% of the Moon is Illuminated
May 11
Waxing Crescent
May 17
First Quarter
May 24
Full
May 31
Last Quarter
Jun 8
New

Hourly Weather History & Observations

Time (MDT) Temp. Windchill Dew Point Humidity Pressure Visibility Wind Dir Wind Speed Gust Speed Precip Events Conditions
12:15 AM 51.8 °F - 42.8 °F 71% 30.24 in 10.0 mi Calm Calm - N/A   Clear
12:35 AM 52.7 °F - 42.8 °F 69% 30.25 in 10.0 mi NNE 8.1 mph - N/A   Clear
12:55 AM 50.9 °F - 43.0 °F 74% 30.24 in 10.0 mi NNW 8.1 mph - N/A   Clear
1:15 AM 50.4 °F - 43.7 °F 78% 30.24 in 10.0 mi NNW 6.9 mph - N/A   Clear
1:35 AM 49.5 °F - 43.3 °F 79% 30.24 in 10.0 mi NNW 6.9 mph - N/A   Clear
1:55 AM 49.1 °F - 42.6 °F 78% 30.24 in 10.0 mi NNW 5.8 mph - N/A   Clear
2:15 AM 48.2 °F - 42.6 °F 81% 30.24 in 10.0 mi NNW 6.9 mph - N/A   Clear
2:35 AM 49.5 °F - 43.2 °F 79% 30.24 in 10.0 mi NNW 6.9 mph - N/A   Clear
2:55 AM 50.0 °F - 43.2 °F 77% 30.24 in 10.0 mi North 10.4 mph - N/A   Clear
3:15 AM 50.0 °F - 43.0 °F 77% 30.24 in 10.0 mi North 8.1 mph - N/A   Clear
3:35 AM 49.5 °F - 42.8 °F 78% 30.24 in 10.0 mi NNW 6.9 mph - N/A   Clear
3:55 AM 48.6 °F - 42.1 °F 78% 30.24 in 10.0 mi NNW 4.6 mph - N/A   Clear
4:15 AM 48.2 °F - 41.9 °F 79% 30.24 in 10.0 mi NNW 4.6 mph - N/A   Clear
4:35 AM 49.1 °F - 42.1 °F 77% 30.24 in 10.0 mi North 8.1 mph - N/A   Clear
4:55 AM 48.9 °F - 42.1 °F 77% 30.25 in 10.0 mi NE 4.6 mph - N/A   Clear
5:15 AM 48.6 °F - 42.3 °F 79% 30.25 in 10.0 mi North 4.6 mph - N/A   Clear
5:35 AM 47.5 °F - 41.9 °F 81% 30.25 in 10.0 mi Calm Calm - N/A   Clear
5:55 AM 48.2 °F - 42.4 °F 80% 30.25 in 10.0 mi NNW 3.5 mph - N/A   Clear
6:15 AM 46.6 °F - 41.9 °F 84% 30.27 in 10.0 mi North 5.8 mph - N/A   Clear
6:35 AM 45.3 °F 43.0 °F 41.4 °F 86% 30.27 in 10.0 mi North 4.6 mph - N/A   Clear
6:55 AM 47.8 °F - 42.1 °F 80% 30.28 in 10.0 mi North 8.1 mph - N/A   Clear
7:15 AM 51.1 °F - 43.0 °F 74% 30.28 in 10.0 mi NNE 3.5 mph - N/A   Clear
7:35 AM 51.1 °F - 43.7 °F 76% 30.29 in 10.0 mi Calm Calm - N/A   Clear
7:55 AM 54.1 °F - 43.2 °F 66% 30.29 in 10.0 mi NW 3.5 mph - N/A   Clear
8:15 AM 55.8 °F - 42.6 °F 61% 30.30 in 10.0 mi Calm Calm - N/A   Clear
8:35 AM 57.2 °F - 43.2 °F 59% 30.31 in 10.0 mi NNW 4.6 mph - N/A   Clear
8:55 AM 59.0 °F - 42.4 °F 54% 30.31 in 10.0 mi Calm Calm - N/A   Clear
9:15 AM 59.4 °F - 41.7 °F 52% 30.31 in 10.0 mi East 4.6 mph - N/A   Clear
9:35 AM 61.0 °F - 41.9 °F 49% 30.32 in 10.0 mi SE 5.8 mph - N/A   Clear
9:55 AM 61.5 °F - 42.6 °F 50% 30.32 in 10.0 mi ESE 6.9 mph - N/A   Clear
10:15 AM 63.0 °F - 43.0 °F 48% 30.32 in 10.0 mi East 9.2 mph - N/A   Scattered Clouds
10:35 AM 63.5 °F - 42.1 °F 46% 30.33 in 10.0 mi East 9.2 mph - N/A   Scattered Clouds
10:55 AM 64.8 °F - 41.5 °F 43% 30.33 in 10.0 mi East 9.2 mph - N/A   Scattered Clouds
11:15 AM 64.8 °F - 41.4 °F 42% 30.33 in 10.0 mi East 8.1 mph - N/A   Scattered Clouds
11:35 AM 65.5 °F - 41.0 °F 41% 30.32 in 10.0 mi NE 5.8 mph - N/A   Mostly Cloudy
11:55 AM 65.7 °F - 39.2 °F 38% 30.32 in 10.0 mi East 10.4 mph - N/A   Mostly Cloudy
12:15 PM 65.3 °F - 38.8 °F 38% 30.32 in 10.0 mi Calm Calm - N/A   Mostly Cloudy
12:35 PM 66.4 °F - 38.5 °F 36% 30.31 in 10.0 mi Calm Calm - N/A   Overcast
12:55 PM 67.1 °F - 38.1 °F 34% 30.31 in 10.0 mi Calm Calm - N/A   Overcast
1:15 PM 66.9 °F - 37.9 °F 34% 30.30 in 10.0 mi ENE 4.6 mph - N/A   Mostly Cloudy
1:35 PM 68.5 °F - 37.6 °F 32% 30.30 in 10.0 mi ENE 8.1 mph - N/A   Mostly Cloudy
1:55 PM 66.2 °F - 38.8 °F 37% 30.29 in 10.0 mi ESE 6.9 mph - N/A Rain Light Rain
2:15 PM 69.8 °F - 36.7 °F 30% 30.28 in 10.0 mi ENE 6.9 mph - N/A   Scattered Clouds
2:35 PM 70.9 °F - 35.8 °F 28% 30.27 in 10.0 mi North 6.9 mph - N/A   Scattered Clouds
2:55 PM 68.5 °F - 37.2 °F 32% 30.27 in 10.0 mi Calm Calm - N/A Rain Light Rain
3:15 PM 72.3 °F - 34.9 °F 25% 30.25 in 10.0 mi ESE 8.1 mph - N/A   Scattered Clouds
3:35 PM 73.4 °F - 32.9 °F 23% 30.25 in 10.0 mi East 6.9 mph - N/A   Scattered Clouds
3:55 PM 73.6 °F - 29.3 °F 19% 30.24 in 10.0 mi ENE 5.8 mph - N/A   Scattered Clouds
4:15 PM 74.8 °F - 32.0 °F 21% 30.23 in 10.0 mi ESE 8.1 mph 16.1 mph N/A   Clear
4:35 PM 74.1 °F - 29.1 °F 19% 30.23 in 10.0 mi ENE 10.4 mph 16.1 mph N/A   Scattered Clouds
4:55 PM 71.8 °F - 32.0 °F 23% 30.23 in 10.0 mi NE 17.3 mph 25.3 mph N/A   Mostly Cloudy
5:15 PM 73.6 °F - 32.0 °F 22% 30.23 in 10.0 mi ENE 16.1 mph 20.7 mph N/A   Scattered Clouds
5:35 PM 72.3 °F - 32.0 °F 23% 30.24 in 10.0 mi NE 10.4 mph - N/A   Mostly Cloudy
5:55 PM 72.3 °F - 30.2 °F 21% 30.23 in 10.0 mi NE 9.2 mph - N/A   Overcast
6:15 PM 72.5 °F - 29.1 °F 20% 30.23 in 10.0 mi ENE 9.2 mph - N/A   Mostly Cloudy
6:35 PM 71.4 °F - 28.2 °F 20% 30.23 in 10.0 mi East 10.4 mph - N/A   Scattered Clouds
6:55 PM 71.8 °F - 28.6 °F 20% 30.23 in 10.0 mi ENE 5.8 mph - N/A   Clear
7:15 PM 71.6 °F - 29.1 °F 21% 30.23 in 10.0 mi NE 9.2 mph - N/A   Clear
7:35 PM 70.3 °F - 30.2 °F 23% 30.23 in 10.0 mi ENE 5.8 mph - N/A   Clear
8:15 PM 68.2 °F - 31.5 °F 26% 30.25 in 10.0 mi NE 5.8 mph - N/A   Overcast
8:35 PM 68.2 °F - 31.8 °F 26% 30.26 in 10.0 mi SE 9.2 mph 19.6 mph N/A   Overcast
8:55 PM 67.3 °F - 33.6 °F 29% 30.27 in 10.0 mi East 8.1 mph 18.4 mph N/A Rain Light Rain
9:15 PM 67.8 °F - 31.8 °F 26% 30.28 in 10.0 mi East 11.5 mph 21.9 mph N/A   Overcast
9:35 PM 67.5 °F - 32.0 °F 27% 30.29 in 10.0 mi East 12.7 mph - N/A   Overcast
9:55 PM 67.1 °F - 32.0 °F 27% 30.29 in 10.0 mi ESE 10.4 mph 23.0 mph N/A   Overcast
10:15 PM 64.8 °F - 37.0 °F 36% 30.30 in 10.0 mi SSE 8.1 mph - N/A   Overcast
10:35 PM 62.8 °F - 39.4 °F 42% 30.31 in 10.0 mi SSE 6.9 mph - N/A   Mostly Cloudy
10:55 PM 62.1 °F - 39.6 °F 44% 30.31 in 10.0 mi SSE 8.1 mph - N/A   Overcast
11:15 PM 61.2 °F - 40.1 °F 46% 30.31 in 10.0 mi SSE 5.8 mph - N/A   Overcast
11:35 PM 60.1 °F - 39.7 °F 47% 30.31 in 10.0 mi SSE 5.8 mph - N/A   Scattered Clouds
11:55 PM 59.4 °F - 39.4 °F 48% 30.31 in 10.0 mi SE 4.6 mph - N/A   Scattered Clouds